Location: Alphen
(52.1351°N, 4.6549°E)
Time: 01:24:26
(UTC+00:00)

Meteor 1-16 Rocket - Pass Details

Date: 27 January 2021
Orbit: 790 x 908 km, 81.2° (Epoch: 27 February)

Event Time Altitude Azimuth Distance (km) Brightness Sun altitude
Rises 04:50:52 0° 190° (S) 3,517 7.3 -24.1°
Reaches altitude 10° 04:53:18 10° 190° (S) 2,585 6.6 -23.7°
Maximum altitude 04:59:15 89° 106° (ESE) 916 4.3 -22.8°
Drops below altitude 10° 05:05:12 10° 13° (NNE) 2,589 6.8 -21.9°
Sets 05:07:39 0° 14° (NNE) 3,524 7.6 -21.5°
